Search your local weather  

 

Hazardous Weather Conditions

No active alerts for SAN ANTONIO, TEXAS

Current Conditions: SAN ANTONIO, TEXAS

Fair


87.0 F

Last Updated on Oct 23 2019, 3:55 pm CDT
Humidity: 25%
Wind Speed: S 16.1 G 24.2 mph
Barometer 29.95 in
Dewpoint: 46.6 F
Visibility: 10.00 mi
Precip: --
Heat Index: 84 F
Wind Chill: NA
Current conditions at:

Castroville Municipal Airport, TX (KCVB)

Lat: 29.34192 Lon: -98.8509

Local Radar Image active severe weather and emergency alerts image image weather storm and storm spotter reports image weather observation monitoring service image
Local
Radar
Active
Alerts
Storm Reports Weather
Monitoring

5 Day Forecast for SAN ANTONIO, TEXAS

Wednesday

Mostly Clear

High 86 °F
Wednesday
Night
Isolated T-storm

Low 66 °F
Thursday

Chance of T-storms

High 84 °F
Thursday
Night
T-storms


Low 66 °F
Friday

Chance of T-storms

High 65 °F
Friday
Night
Mostly Clear

Low 66 °F
Saturday

Mostly Sunny

High 72 °F
Saturday
Night
Clear

Low 66 °F
Sunday

Clear

High 78 °F

Sign-up For Email & Text Message Weather Alert Notification Services


Advertise Here

Observation History for SAN ANTONIO, TEXAS


Time Wind
(mph)
Vis
(mi)
Weather Precip (in) Temperature (F) Relative
Humidity
Wind
Chill
(°F)
Heat
Index
(°F)
Pressure
Air Dwpt altimeter
(in)
sea level
(mb)
3:55 pm CDT S 16.1 G 24.2 10.00 Fair -- 87.0 46.6 25% NA 84 29.95 M
2:55 pm CDT S 15.0 G 20.7 10.00 Fair -- 85.0 51.6 31% NA 83 29.98 M
2:35 pm CDT S 10.4 G 24.2 10.00 Fair -- 84.0 52.5 33% NA 82 29.99 M
1:55 pm CDT S 13.8 G 19.6 10.00 NULL -- 83.0 51.4 34% NA 82 30.03 M
1:35 pm CDT S 9.2 G 20.7 10.00 NULL -- 82.0 52.9 36% NA 81 30.04 M
12:55 pm CDT S 13.8 G 23.0 10.00 Fair -- 81.0 51.8 37% NA 80 30.07 M
12:35 pm CDT S 13.8 G 21.9 10.00 Fair -- 80.0 54.5 41% NA 80 30.09 M
11:55 am CDT S 11.5 G 18.4 10.00 Fair -- 78.0 55.8 47% NA NA 30.10 M
10:55 am CDT S 6.9 10.00 Fair -- 72.0 53.6 52% NA NA 30.13 M
9:55 am CDT N 0.0 10.00 Fair -- 67.0 48.7 53% NA NA 30.13 M
9:35 am CDT N 0.0 10.00 Fair -- 65.0 47.8 54% NA NA 30.13 M
8:55 am CDT N 0.0 10.00 Fair -- 58.0 48.4 71% NA NA 30.12 M
7:55 am CDT NW 5.8 7.00 Fair -- 52.0 46.8 83% 50 NA 30.10 M
6:55 am CDT NW 4.6 10.00 Fair -- 51.0 45.9 82% 50 NA 30.10 M
6:35 am CDT N 0.0 10.00 Fair -- 51.0 45.9 81% NA NA 30.10 M
5:55 am CDT N 0.0 10.00 Fair -- 52.0 45.5 80% NA NA 30.10 M
4:55 am CDT N 0.0 10.00 Fair -- 52.0 45.5 79% NA NA 30.10 M
4:35 am CDT NW 3.5 10.00 Fair -- 52.0 45.9 79% NA NA 30.10 M
3:55 am CDT N 3.5 10.00 Fair -- 53.0 45.5 76% NA NA 30.11 M
2:55 am CDT E 3.5 10.00 Fair -- 58.0 43.0 57% NA NA 30.12 M
2:35 am CDT N 0.0 10.00 Fair -- 59.0 42.8 54% NA NA 30.13 M
1:55 am CDT N 0.0 10.00 Fair -- 58.0 42.1 55% NA NA 30.12 M
12:55 am CDT SE 4.6 10.00 Fair -- 62.0 42.3 49% 62 NA 30.14 M
11:55 pm CDT SE 4.6 10.00 Fair -- 63.0 41.0 45% 64 NA 30.14 M

Regional Weather Observation

San Antonio, San Antonio International Airport, TX (KSAT)

A Few Clouds
85.0 F

San Antonio - Kelly Field, TX (KSKF)

Fair
86.0 F

San Antonio, Stinson Municipal Airport, TX (KSSF)

Fair
85.0 F

Randolph Air Force Base, TX (KRND)

Fair
86.0 F

New Braunfels Regional Airport, TX (KBAZ)

Fair
88.0 F

Kerrville, Kerrville Municipal Airport/Louis Schreiner Field, TX (KERV)

Fair
82.0 F

Advertise Here

Advertise Here